Location: Arbon
(43.0005°N, 0.7472°E)
Time: 06:10:21
(UTC+00:00)

Vanguard 1 - Pass Details

Date: 27 November 2020
Orbit: 648 x 3834 km, 34.3° (Epoch: 21 January)

Event Time Altitude Azimuth Distance (km) Brightness Sun altitude
Rises 07:53:02 0° 261° (W) 4,155 12.9 6.6°
Reaches altitude 10° 07:55:23 10° 257° (WSW) 3,467 12.5 6.9°
Maximum altitude 08:04:19 56° 182° (S) 2,375 12.5 8.2°
Drops below altitude 10° 08:20:46 10° 111° (ESE) 6,096 15.7 10.5°
Sets 08:26:30 0° 108° (ESE) 7,493 15.9 11.3°
